Wind_Speed
12 12 12 12 13 13 13 13 14 14 14 14 15 16 17 17 17 17 16 15 15 15 15 15 16 16 17 18 20 21 24 26 26 20 12 22 27 21 18 13 7 8 10 10 10 8 4 2 4 3 5 4 2 2 2 3 2 2 3 2 4 4 5 5 5 6 4 5 7 8 7 6 8 6 2 6 9 10 11 8 9 11 12 16 20 27 32 33
12 12 13 13 13 13 13 13 14 14 14 15 15 16 16 17 17 17 16 16 15 15 15 15 15 16 17 18 20 21 24 26 22 18 24 30 25 21 23 20 15 13 10 8 9 9 4 1 4 4 4 3 1 2 3 2 3 3 3 3 5 5 4 4 4 5 4 5 9 10 6 6 5 3 2 4 5 8 14 10 13 17 16 19 22 27 29 31
12 12 13 13 13 13 13 14 14 14 15 16 16 16 16 16 17 17 16 16 16 15 15 15 15 16 17 18 19 21 23 20 12 14 22 22 22 26 25 21 21 21 17 12 9 10 8 2 4 4 2 2 2 2 3 2 3 4 3 3 6 5 4 4 5 7 6 7 8 9 5 5 7 3 1 6 6 7 13 13 15 16 17 17 18 23 26 27
12 13 13 13 13 13 13 14 14 15 16 16 17 16 16 17 17 17 17 16 16 15 15 15 16 16 17 18 18 21 18 10 4 7 8 10 13 20 24 24 22 22 21 16 10 9 9 3 2 4 2 2 2 1 3 3 2 3 4 5 5 4 4 6 7 8 7 7 6 7 5 6 8 5 1 9 8 3 8 13 19 21 20 20 19 21 22 21
12 13 13 13 13 14 14 14 15 15 16 16 17 17 17 17 16 17 17 15 15 15 15 15 16 16 17 18 19 19 9 2 2 1 10 14 13 13 21 26 24 23 19 15 10 7 8 4 2 2 2 1 1 1 3 5 3 2 4 6 6 4 4 6 7 7 8 7 5 7 5 4 5 4 1 4 5 3 6 9 18 25 24 21 20 19 17 16
13 13 12 13 13 14 14 15 15 15 16 16 17 17 16 17 17 17 17 16 15 15 15 15 16 16 17 19 17 10 2 2 2 5 13 18 16 9 17 25 26 26 19 14 11 8 6 4 3 1 2 1 2 4 4 3 3 3 4 4 6 6 5 6 5 6 7 4 6 6 2 2 3 3 3 3 1 3 9 10 14 19 21 19 17 17 16 15
14 13 13 13 13 14 14 15 16 15 16 16 17 18 17 17 17 17 16 16 15 14 15 15 15 15 17 19 11 2 2 7 9 3 11 17 21 11 10 21 26 26 19 14 11 8 5 5 5 3 3 2 4 5 5 3 3 4 5 5 7 6 6 7 7 7 6 4 7 6 4 3 1 1 2 5 2 8 15 14 14 14 16 16 15 16 15 14
14 14 14 14 14 15 15 15 15 15 17 16 17 18 18 18 17 17 16 16 15 14 14 14 14 14 16 15 6 1 1 13 17 9 9 14 20 14 4 12 22 23 19 17 13 7 5 7 6 4 3 3 4 3 4 2 1 5 6 6 5 5 7 8 8 8 8 7 8 7 6 4 5 6 4 5 5 13 17 16 16 15 14 15 15 15 13 12
15 15 14 14 15 15 15 16 16 16 17 16 17 17 18 18 17 17 16 16 15 13 13 14 14 13 13 10 3 2 7 18 20 15 13 14 15 12 7 4 16 21 16 16 13 9 5 6 7 5 4 4 4 3 3 3 3 6 7 7 6 6 8 7 7 8 9 7 5 6 4 4 6 7 6 3 7 13 18 18 17 16 16 15 13 12 11 11
16 16 15 15 15 16 16 16 16 17 18 18 18 18 18 18 17 16 15 16 15 13 13 13 12 12 11 7 2 4 8 11 15 17 15 14 12 8 6 5 6 14 14 11 10 10 7 6 6 4 2 2 4 4 4 5 4 5 6 7 8 9 8 4 6 8 5 5 5 7 5 5 4 4 5 4 9 14 18 18 16 15 14 15 12 10 9 9
17 17 16 16 16 16 16 17 16 17 18 18 19 19 19 18 18 17 15 15 14 14 13 11 12 11 9 5 1 6 5 2 6 8 7 11 12 10 8 6 3 6 9 9 11 15 13 7 3 2 2 2 3 2 3 4 2 3 4 5 8 8 7 4 7 7 3 4 6 7 5 1 1 3 8 10 11 13 18 18 15 13 11 13 12 8 7 8
18 19 17 16 16 16 16 17 17 17 18 19 19 20 19 18 18 17 16 15 14 14 12 12 10 9 9 6 9 17 9 3 6 11 15 15 15 14 12 10 8 8 8 6 9 18 19 10 2 1 2 1 1 1 3 3 2 4 3 3 7 6 6 6 6 5 6 4 5 6 3 5 3 4 12 12 12 12 16 17 14 12 10 11 10 8 6 6
20 21 19 17 16 16 16 17 17 17 18 19 20 21 20 19 19 17 17 15 14 14 13 12 9 8 8 4 17 30 21 16 21 26 25 20 19 17 14 13 13 11 10 10 14 18 17 13 7 4 2 1 2 2 1 3 3 4 1 1 5 5 5 7 4 4 7 5 4 7 1 6 4 6 13 12 13 13 13 14 12 10 10 10 8 7 6 5
20 21 20 18 17 16 17 17 17 18 18 20 21 22 21 21 21 19 17 16 15 14 12 10 8 8 7 8 23 30 25 25 29 29 25 21 20 18 17 16 15 14 13 15 19 18 15 16 11 4 3 1 4 5 6 4 2 2 2 1 1 1 5 8 2 6 6 3 6 9 3 6 3 6 13 11 13 16 14 13 12 10 9 9 8 8 7 5
20 20 20 19 18 16 17 18 18 18 19 20 21 22 23 23 23 21 18 16 15 14 12 9 7 6 4 12 21 17 10 13 23 29 27 23 17 13 17 15 11 11 10 14 18 15 11 16 10 3 3 4 2 3 4 3 3 2 1 3 2 2 4 8 3 7 8 2 4 9 4 5 4 8 12 11 12 15 15 14 14 12 10 9 8 8 7 4
19 19 19 19 18 17 17 17 17 18 19 20 22 23 23 24 24 22 20 18 16 13 9 7 6 7 2 7 9 7 4 8 16 23 21 21 17 14 17 12 10 11 9 11 15 12 9 12 5 3 3 3 3 3 1 3 4 3 2 3 2 2 2 5 4 5 7 2 1 5 4 3 4 8 11 11 13 13 14 15 15 13 10 10 8 7 6 4
20 19 19 20 19 17 16 16 17 18 19 21 24 25 26 28 27 23 20 17 15 11 8 5 4 6 7 9 7 5 6 9 13 14 12 16 18 19 14 6 7 9 8 7 9 9 7 6 3 3 4 3 4 5 1 4 5 2 0 3 3 2 2 2 4 5 2 4 2 2 4 4 2 8 12 12 13 13 13 15 14 12 9 9 8 7 6 6
20 20 20 19 18 17 17 16 16 18 19 22 24 27 31 29 24 19 16 10 5 4 6 6 4 3 6 9 6 5 5 8 11 11 11 12 13 17 11 4 3 4 6 3 4 5 4 3 3 2 3 4 5 6 6 7 5 3 3 3 2 3 3 3 4 3 2 3 4 4 4 6 0 7 13 13 14 14 14 15 13 11 10 9 8 7 8 8
21 20 19 19 18 18 17 16 16 17 19 22 25 29 27 16 6 5 6 5 5 2 2 5 7 3 4 6 5 6 11 13 12 10 11 13 10 11 10 6 1 2 1 1 3 6 4 2 3 5 7 7 7 8 8 6 7 7 5 4 4 3 3 4 5 5 3 4 4 7 6 5 4 7 11 13 13 11 12 13 11 9 9 8 8 8 8 8
21 20 20 19 19 18 17 15 15 16 18 20 23 23 14 4 2 1 2 6 7 6 3 5 11 6 9 6 1 8 15 13 8 5 9 13 13 9 6 4 3 2 3 3 4 4 5 4 7 9 8 7 7 7 7 6 6 6 5 4 4 4 4 4 4 6 2 3 4 6 6 5 7 8 11 13 10 9 11 12 11 10 9 9 10 10 9 8
21 21 20 19 19 18 17 15 14 15 16 18 18 12 5 2 2 1 0 5 11 13 11 8 14 12 13 14 8 10 11 8 6 7 10 10 13 11 5 4 5 4 4 4 3 2 5 8 9 8 6 7 7 8 9 7 6 4 4 4 3 3 5 5 4 6 2 2 5 2 3 5 6 9 10 12 11 10 13 14 13 13 10 9 11 10 10 8
21 21 20 19 19 18 17 15 14 15 16 17 13 6 6 7 3 2 2 4 9 15 16 14 14 14 19 23 18 7 3 5 9 10 8 7 9 8 6 6 6 4 5 5 3 3 7 8 5 6 6 7 6 7 10 8 7 5 4 4 3 3 4 5 4 6 2 2 4 0 3 4 5 8 10 13 13 12 15 17 17 16 13 11 12 11 11 11
21 20 20 19 18 17 17 14 13 15 18 17 11 7 8 5 2 5 3 3 9 10 13 14 14 13 16 19 15 8 4 5 6 9 5 7 6 7 8 8 7 5 6 7 7 6 6 5 5 7 6 8 5 6 9 7 6 5 4 5 3 4 2 2 4 5 2 2 1 2 2 3 2 5 8 11 11 10 12 12 9 11 14 13 12 11 11 13
20 20 19 18 17 16 15 13 14 17 16 13 13 14 11 9 10 11 4 2 7 7 10 16 14 11 16 15 10 12 7 6 6 7 6 7 4 5 7 8 8 7 7 8 8 7 4 4 6 9 7 8 6 5 8 6 4 4 5 6 4 4 4 3 3 4 4 3 1 4 3 5 1 4 7 5 5 9 10 9 5 1 5 9 11 11 9 11
20 19 18 18 17 16 14 12 13 13 10 10 16 15 10 12 16 12 3 1 5 4 5 11 9 8 15 12 11 12 6 5 8 8 6 7 6 5 5 5 6 8 8 7 6 6 5 4 6 10 8 8 8 6 8 7 4 4 5 7 8 5 5 3 2 4 5 5 2 4 2 6 4 3 9 6 7 9 10 11 10 7 8 9 10 10 9 9
19 18 18 17 16 15 11 7 7 7 8 10 12 11 11 16 16 7 4 2 5 3 2 4 5 7 9 9 10 8 3 4 10 14 10 8 7 6 5 3 3 6 7 6 3 3 4 5 6 10 10 9 9 7 7 9 6 4 5 9 9 5 6 3 1 3 1 2 4 2 4 5 5 1 7 10 12 11 9 11 13 12 13 12 9 9 10 11
18 18 17 16 15 12 6 4 6 6 6 9 10 14 16 19 11 6 4 2 3 2 3 2 3 6 7 10 13 9 3 3 6 11 13 11 7 5 7 5 4 5 5 5 3 2 6 8 6 8 10 9 10 7 7 10 7 4 5 10 8 6 7 4 2 1 3 2 5 2 4 3 3 3 5 10 15 13 12 12 12 13 13 12 10 10 10 11
18 17 17 16 14 10 10 8 8 7 7 11 17 19 20 19 5 7 1 1 3 1 3 2 4 5 5 10 15 9 5 3 4 6 11 14 9 4 6 6 6 6 4 6 5 2 6 10 8 8 9 9 8 5 7 10 6 4 6 9 7 7 7 6 5 5 2 1 6 5 3 3 5 3 2 8 14 15 17 14 11 13 14 12 10 8 8 9
17 16 16 15 14 12 13 12 10 11 14 18 20 20 21 15 2 3 1 1 2 1 2 2 3 4 5 8 10 8 5 1 2 5 9 11 10 4 3 5 7 6 5 6 6 3 4 10 10 8 7 7 6 5 8 10 5 3 6 8 4 5 5 5 5 4 1 1 7 7 4 3 5 2 4 8 11 14 16 14 13 15 14 12 10 8 8 8
15 15 15 13 13 11 10 12 16 16 15 17 20 22 18 6 2 2 2 2 1 1 1 1 2 5 9 8 5 7 7 3 2 5 7 5 6 5 2 5 6 4 5 4 5 5 3 5 8 7 7 5 6 5 7 10 7 4 6 6 3 1 2 3 2 2 2 3 8 7 6 5 4 3 6 5 5 12 13 10 12 12 11 11 10 9 9 8
15 15 14 12 12 9 5 6 11 8 11 17 20 18 9 0 2 2 3 1 2 2 2 1 1 7 11 8 5 7 7 3 3 5 8 4 5 5 3 5 4 4 5 5 6 8 7 4 5 5 6 6 7 5 5 8 8 6 5 4 2 2 3 3 2 2 3 7 6 6 7 6 5 4 5 3 2 11 15 13 14 13 11 11 9 9 8 8
14 14 13 13 13 12 9 6 6 6 14 19 15 9 1 2 1 2 3 4 2 2 3 2 1 4 8 6 5 8 5 2 3 3 7 6 6 6 6 6 5 5 7 6 5 6 8 6 3 2 6 8 8 5 4 5 6 5 5 6 4 1 0 2 2 1 5 7 4 5 6 5 4 4 4 5 5 12 15 15 19 19 16 13 11 11 10 9
13 13 13 14 14 14 16 15 12 12 16 15 8 2 2 2 2 4 3 3 2 4 5 2 4 2 6 5 3 7 5 2 3 2 4 6 7 7 6 7 7 6 5 4 4 4 6 6 4 4 5 8 10 7 5 5 6 7 5 6 6 4 4 5 4 1 3 5 3 1 3 3 3 2 2 3 5 12 15 14 18 21 19 16 14 12 11 11
12 12 13 14 14 14 16 16 15 12 11 10 3 1 3 3 3 2 2 2 4 6 6 5 7 4 7 7 4 6 5 2 3 4 3 6 7 7 7 7 8 6 4 5 4 6 8 6 7 8 4 7 11 8 7 6 5 6 5 6 5 5 5 4 4 3 3 4 3 2 2 3 2 1 4 6 5 4 4 4 9 13 14 14 13 12 11 11
11 12 14 14 14 14 12 12 13 9 5 4 1 2 4 4 2 1 1 2 4 5 9 9 5 1 4 6 4 5 5 2 3 3 2 5 7 7 8 6 7 5 5 6 4 4 10 7 6 6 4 7 10 6 7 7 5 4 4 5 4 5 5 2 3 6 4 2 2 1 2 1 2 2 5 3 4 8 7 7 1 5 8 12 12 10 10 10
10 10 11 12 13 13 10 9 10 7 2 1 1 4 3 2 1 0 2 4 4 7 11 9 3 3 1 2 3 5 4 2 4 2 1 4 5 6 8 5 6 7 5 5 3 3 8 6 4 3 6 8 9 8 9 7 5 3 4 6 5 4 5 2 2 2 3 3 1 1 1 2 0 1 3 6 9 10 6 6 8 5 4 10 11 8 9 10
7 7 6 9 10 8 6 7 6 6 4 1 2 3 1 1 1 1 4 5 6 7 7 5 3 3 2 1 2 5 4 2 2 3 1 2 3 5 7 5 5 8 6 4 2 2 5 3 5 5 9 10 7 9 9 9 8 6 6 7 4 5 2 2 2 1 2 3 2 2 1 1 1 1 2 7 9 8 9 5 5 7 5 3 8 9 10 11
6 5 5 7 8 6 3 6 7 8 4 1 3 2 1 1 1 3 5 6 7 7 4 2 2 2 2 2 2 2 4 3 2 4 2 2 2 4 7 5 5 8 7 4 2 2 3 2 5 6 10 8 5 7 7 7 6 5 7 7 6 4 4 2 3 2 2 3 2 1 1 2 2 2 3 8 10 10 9 8 8 6 4 4 3 9 11 11
5 4 2 3 7 6 5 10 9 6 2 2 3 2 0 1 3 4 4 5 6 5 3 2 1 2 2 1 3 2 4 5 3 3 2 2 3 4 7 6 4 8 8 6 4 2 2 2 4 5 8 7 4 5 6 7 2 3 6 7 4 4 5 3 3 3 4 3 1 2 3 3 3 4 7 9 12 14 14 11 10 11 8 2 2 7 9 10
4 2 1 4 10 4 13 13 7 3 1 2 2 1 2 3 4 5 6 6 5 3 2 3 1 1 3 2 2 2 1 4 4 3 2 4 4 4 5 7 6 7 9 7 5 2 1 2 3 4 3 6 4 5 7 8 5 4 6 6 4 2 2 3 2 2 5 4 2 3 2 4 4 4 8 9 9 12 16 14 10 9 12 10 7 7 7 9
3 1 1 6 8 12 16 9 3 2 1 1 1 0 2 4 5 6 8 7 6 3 2 4 3 3 2 3 3 2 2 1 3 3 2 4 4 2 5 7 7 8 7 6 6 3 2 3 2 2 2 5 5 4 8 11 9 7 6 5 5 4 4 3 3 1 3 4 4 4 3 5 4 2 6 9 8 9 12 14 11 10 11 12 11 10 8 8
2 1 1 7 5 16 11 3 3 1 0 1 1 2 3 5 4 6 6 6 6 3 2 4 6 4 2 3 3 1 2 2 2 3 2 4 5 4 5 6 8 9 8 5 5 4 3 3 2 2 4 6 6 3 7 12 10 7 5 5 4 4 5 6 5 3 3 3 2 3 1 4 4 2 3 7 8 8 9 10 11 11 10 9 10 11 10 9
1 2 2 7 5 15 6 1 3 1 1 1 3 4 4 3 3 5 5 4 4 2 2 3 5 5 3 4 2 2 1 1 1 3 2 3 4 5 6 6 7 8 8 5 4 3 2 2 1 3 3 2 3 2 2 6 7 5 3 4 5 4 4 6 5 3 4 3 2 3 0 4 3 1 3 8 9 9 9 9 11 11 9 9 10 10 10 10
3 2 2 5 5 12 4 0 3 2 2 2 4 5 4 4 5 6 5 2 2 3 3 4 6 6 3 3 1 3 2 0 1 2 1 1 2 4 5 5 5 7 6 5 5 4 4 2 2 1 2 2 1 1 2 2 4 4 3 4 6 6 6 4 3 4 3 4 5 5 3 4 1 3 6 9 10 10 9 9 10 10 10 10 10 9 9 10
3 1 1 3 3 7 2 1 1 2 2 2 4 5 5 3 5 8 7 5 7 7 5 5 6 7 4 3 1 3 2 2 2 3 2 0 3 2 2 3 6 8 6 7 8 7 4 3 3 3 3 3 4 5 4 4 3 2 3 6 6 7 8 4 3 5 3 3 4 5 4 2 2 7 10 11 11 11 10 10 8 8 8 8 7 7 8 9
2 1 0 1 2 1 1 1 1 0 2 2 3 3 4 4 3 5 7 8 10 11 9 7 8 9 4 4 2 2 3 2 2 2 2 1 3 2 2 4 4 6 7 10 10 7 3 3 4 6 6 6 7 6 5 5 4 2 3 6 6 6 8 6 4 4 5 3 2 3 5 7 8 9 11 12 12 11 11 12 10 9 9 8 7 7 8 9
1 2 1 2 2 2 2 2 2 2 1 2 2 2 3 4 3 3 5 7 8 9 7 7 7 7 3 2 2 1 4 4 1 1 1 2 3 3 5 4 1 2 4 12 10 5 5 3 5 5 3 5 5 6 5 6 7 7 6 7 7 7 8 7 4 5 6 7 2 5 8 12 10 10 13 14 13 13 12 12 12 10 10 9 8 9 10 10
1 1 1 1 0 3 3 3 4 6 5 3 1 2 3 5 4 3 4 6 7 5 2 2 2 2 1 1 2 2 4 4 3 2 1 2 2 3 5 4 3 6 1 10 8 4 6 4 5 5 1 4 4 6 3 5 5 4 6 5 6 8 10 9 7 7 9 7 5 8 13 13 11 13 15 14 14 14 14 12 11 11 11 10 10 11 12 11
1 1 1 2 2 2 2 2 3 6 7 5 3 3 4 5 7 5 4 4 5 3 0 1 2 3 3 2 3 2 2 1 2 2 2 2 2 1 3 3 4 7 3 7 5 1 4 4 4 5 2 5 7 8 2 6 5 5 5 4 2 4 10 10 6 6 7 4 6 14 14 8 7 10 10 9 10 11 11 10 11 12 12 12 11 12 12 11
0 1 1 1 2 2 2 3 2 3 4 4 4 4 4 5 6 5 3 3 4 4 2 0 2 2 2 2 3 2 5 4 2 3 2 1 2 0 2 0 4 6 5 3 2 3 1 3 2 4 4 5 7 7 6 6 8 7 6 7 7 3 3 5 5 5 5 4 5 12 10 3 3 7 9 9 10 10 11 11 11 12 13 13 12 11 12 11
4 4 3 1 2 2 2 2 3 3 3 3 4 4 3 5 4 3 3 4 4 3 1 1 2 2 2 2 1 4 6 4 4 6 5 2 1 1 1 2 3 3 5 2 3 3 2 1 1 4 5 3 5 5 7 6 8 9 6 8 8 4 1 2 2 3 6 10 11 9 6 4 5 9 11 10 11 12 12 12 11 11 12 14 13 12 11 10
8 7 4 2 2 1 1 1 2 3 3 2 3 3 3 4 4 3 3 4 2 2 3 4 3 2 2 2 4 6 6 4 5 6 5 3 3 3 1 1 2 1 1 2 3 2 3 4 1 3 5 2 5 3 5 6 6 4 3 4 4 2 1 1 1 2 7 13 13 8 6 7 10 13 14 13 14 14 13 12 11 11 11 12 13 13 11 10
Wind_Direction
323 323 324 325 323 324 323 320 320 320 322 320 321 322 322 323 321 321 321 319 317 320 323 321 321 323 322 322 324 324 322 319 313 312 279 250 248 241 248 253 237 220 216 239 249 242 272 288 238 201 153 153 159 191 188 173 146 92 109 170 212 203 205 186 185 199 216 268 296 317 356 357 324 319 329 48 57 83 80 67 84 80 93 106 115 129 137 146
319 319 321 321 321 322 321 320 318 319 319 318 319 319 320 321 320 320 320 319 319 319 322 322 322 323 324 325 325 324 323 318 310 295 264 255 258 251 246 242 234 233 227 235 240 213 178 218 226 186 142 155 211 186 181 187 159 157 140 183 226 206 211 197 203 251 266 277 297 307 343 345 301 284 303 88 89 91 89 88 98 101 106 108 122 134 140 149
314 315 317 317 318 318 319 319 317 317 316 316 317 317 318 319 319 320 319 318 319 321 322 322 323 324 326 325 324 325 322 318 309 273 268 269 261 252 245 236 228 232 238 245 251 214 185 183 200 162 118 191 225 173 182 219 178 181 168 210 239 216 246 261 236 260 267 267 293 299 334 344 296 295 326 128 124 110 115 125 121 121 127 126 135 140 147 154
309 310 311 313 313 314 315 316 316 315 314 314 315 316 316 316 318 318 318 318 316 319 321 322 324 323 325 325 324 324 320 315 284 246 297 321 282 256 239 231 223 227 235 236 247 225 199 188 172 149 119 226 278 122 184 232 198 186 182 213 238 198 243 260 230 242 257 252 264 287 330 336 307 331 150 140 124 131 150 149 140 140 140 139 145 147 155 158
304 305 307 308 310 311 312 313 313 313 313 312 311 312 313 313 316 316 316 316 314 316 318 322 322 323 325 324 324 321 317 305 268 48 5 348 321 276 229 220 217 224 227 222 227 207 192 178 106 102 123 207 284 120 219 233 178 209 216 218 233 201 236 251 230 235 245 252 273 288 313 316 312 351 295 138 126 171 170 164 147 144 145 146 148 150 156 156
299 300 302 303 306 308 309 311 311 312 312 310 308 310 311 312 313 314 314 313 315 315 315 321 321 326 325 322 324 315 238 252 315 40 1 350 344 305 218 210 213 219 219 214 212 186 177 147 114 146 143 164 207 199 249 250 164 227 262 236 233 219 232 248 237 241 242 271 290 276 301 27 28 4 316 15 27 140 128 143 139 138 140 139 141 148 155 158
294 296 297 300 303 304 306 308 309 311 311 311 309 309 311 311 310 312 312 311 314 315 316 320 321 326 327 329 328 284 173 275 270 306 343 353 356 346 197 202 207 212 210 201 196 182 163 140 162 177 134 147 205 213 249 269 173 203 258 268 252 228 224 245 250 258 261 271 266 272 353 331 227 153 357 26 65 116 116 128 126 125 127 127 136 148 155 160
288 291 292 296 298 301 304 305 308 309 310 312 310 310 310 308 309 309 310 310 310 314 317 318 322 326 330 334 333 355 267 250 249 263 311 343 360 16 114 189 197 201 199 195 192 175 147 150 179 168 147 209 194 205 226 244 235 210 236 262 264 244 234 247 252 259 262 259 261 288 329 269 184 119 64 41 98 116 118 128 125 119 122 132 146 152 156 164
282 286 288 292 295 298 300 302 306 307 309 310 308 310 309 308 308 308 309 307 306 311 313 315 318 323 328 327 314 301 253 239 248 265 281 308 350 28 59 130 187 194 191 201 195 166 161 181 200 178 171 211 192 220 197 176 247 220 220 242 255 260 257 254 253 254 251 253 266 288 300 198 165 96 66 60 116 122 121 128 128 122 131 144 154 156 156 164
279 282 284 288 293 295 297 299 303 307 309 307 306 309 308 309 307 307 308 304 304 306 308 312 314 321 325 314 236 247 256 247 251 257 268 289 323 5 21 38 181 194 189 199 187 171 186 191 197 175 145 208 210 226 179 172 225 211 210 242 248 255 268 246 241 254 246 261 258 263 263 184 196 77 91 131 134 130 124 130 132 125 136 149 156 159 156 165
279 279 280 284 289 293 295 298 303 306 307 306 308 309 308 308 305 305 305 301 302 302 306 310 311 319 308 300 242 234 244 207 216 241 285 296 306 323 327 340 327 237 212 200 186 195 205 195 170 121 138 228 240 244 201 200 242 243 239 273 264 261 280 239 232 247 201 261 233 223 262 212 345 72 140 149 145 141 131 135 137 128 141 152 152 155 162 172
278 277 276 278 284 289 293 298 303 304 304 305 307 309 308 306 304 302 300 301 302 298 303 304 306 309 288 277 239 231 220 191 259 296 302 298 297 296 300 299 299 288 260 239 213 213 210 201 180 207 212 212 269 244 221 255 326 288 264 282 283 298 299 246 234 225 170 233 213 169 292 316 346 126 147 144 146 148 136 137 136 133 145 149 148 154 174 177
280 279 278 276 277 282 289 296 300 302 302 303 305 308 308 304 302 300 299 301 299 296 299 298 299 290 278 267 245 245 251 269 289 297 285 283 288 278 280 281 280 279 263 256 247 236 219 196 186 223 259 73 242 259 301 318 350 316 308 182 288 330 306 256 226 182 173 215 172 136 256 284 301 140 146 145 145 144 139 141 136 138 149 148 151 159 178 178
284 283 280 274 271 277 286 292 298 301 302 304 307 308 308 306 304 299 296 295 296 296 293 296 296 274 255 258 266 267 272 277 285 284 268 268 277 272 268 263 267 270 262 257 252 254 234 196 185 215 284 239 238 299 338 345 358 329 310 261 297 281 277 280 252 157 177 228 149 140 209 250 250 152 153 153 150 147 145 146 141 146 152 149 154 160 178 184
292 288 281 274 271 273 281 289 295 300 303 307 308 307 305 304 303 296 290 290 294 293 290 295 274 258 272 267 276 289 286 271 267 260 252 255 260 264 260 254 261 262 265 261 248 255 226 185 180 193 255 248 219 305 332 342 345 42 185 295 329 177 262 298 288 162 178 248 133 148 198 257 232 172 162 155 155 150 146 149 148 153 153 150 156 160 171 173
299 293 285 277 273 271 278 286 293 299 304 307 307 305 302 300 299 293 286 284 289 289 286 292 236 210 256 275 287 309 258 236 250 256 254 249 243 241 251 264 281 270 276 267 242 240 203 170 174 176 191 236 164 140 6 331 321 3 150 234 275 193 259 305 302 211 188 135 101 163 160 249 244 180 168 155 159 155 147 152 154 155 153 150 155 158 162 152
304 299 290 282 275 271 275 282 291 299 303 307 308 305 301 298 296 290 285 281 280 275 253 249 210 193 246 275 301 303 254 245 255 269 266 247 239 238 248 279 287 282 299 275 225 217 195 171 191 174 168 198 156 133 160 243 249 308 136 197 238 208 192 262 294 276 186 117 178 185 158 218 229 167 169 160 162 159 150 155 157 155 150 148 153 153 156 158
308 303 295 288 279 271 274 280 290 298 303 307 308 306 303 300 296 285 277 265 250 252 235 236 216 181 250 265 283 287 282 288 286 281 257 239 234 230 224 220 256 318 330 293 192 181 185 199 183 153 185 187 171 163 191 216 192 178 177 166 237 226 189 226 260 258 123 110 161 155 202 236 136 158 172 166 168 165 157 158 159 154 147 150 154 153 157 160
310 307 300 293 283 275 274 278 287 297 305 308 309 312 311 308 303 272 245 198 150 151 210 202 191 188 290 249 222 278 304 307 300 280 231 211 206 207 201 206 224 56 315 258 181 182 167 168 165 186 212 195 189 188 189 188 153 162 178 163 178 200 232 231 251 255 139 109 166 171 209 212 139 167 175 170 171 165 157 153 150 150 146 152 155 154 156 157
312 310 304 295 286 279 275 278 286 297 307 311 317 325 331 356 69 80 164 188 203 233 253 177 189 234 299 281 257 326 322 316 297 268 221 198 172 158 173 178 115 138 203 166 185 188 145 178 210 206 203 184 183 176 170 175 158 155 153 172 191 187 253 255 265 288 93 121 231 192 205 208 161 174 179 172 162 148 151 150 150 156 156 161 158 154 153 151
312 312 308 299 290 281 275 279 285 295 305 309 319 331 331 304 295 0 29 233 229 235 251 224 199 224 261 265 293 338 334 323 306 288 265 219 162 146 170 160 136 185 204 168 172 147 157 203 218 203 177 161 167 159 165 186 189 180 153 178 233 196 243 261 253 292 9 159 263 169 202 243 175 180 185 168 153 151 160 159 158 161 159 160 155 151 148 144
312 311 309 302 293 281 275 279 284 292 296 299 308 301 266 268 252 291 294 275 251 228 235 237 219 232 250 257 270 294 320 297 301 297 266 214 175 170 172 155 160 186 181 170 164 164 201 220 194 167 158 145 152 158 168 189 197 203 172 165 243 225 246 285 280 303 7 172 277 228 231 264 174 184 189 173 167 168 172 168 165 164 162 162 157 150 147 144
310 309 309 305 296 283 276 278 284 287 288 291 283 241 253 265 267 314 290 272 278 234 216 225 222 232 245 256 256 221 207 228 260 285 239 181 189 183 163 162 166 169 177 184 183 177 204 227 164 151 151 145 156 170 167 188 199 191 173 161 225 228 198 276 295 319 333 202 269 125 249 289 149 167 188 186 173 161 166 161 154 161 159 157 152 146 149 151
307 306 307 307 298 286 276 277 284 283 288 292 270 256 276 291 291 297 289 259 279 247 212 213 207 220 233 237 211 184 200 204 202 262 236 182 178 163 161 162 153 172 197 187 184 191 218 240 166 149 158 162 170 181 171 184 210 206 184 164 207 219 173 198 274 325 339 330 17 91 12 314 253 158 179 183 128 136 149 128 90 76 131 136 142 143 150 153
304 302 305 308 304 291 279 283 281 277 294 289 272 280 311 321 306 285 253 309 281 262 223 207 198 225 225 207 172 167 196 221 208 232 224 185 183 165 165 164 158 185 187 163 173 205 239 247 162 156 176 182 182 193 184 177 190 233 207 181 200 191 146 176 320 13 18 340 302 115 58 298 292 182 174 154 123 145 156 142 143 155 149 149 149 146 149 148
301 300 303 305 309 299 281 278 266 273 309 285 280 316 337 337 326 265 193 335 282 252 187 171 175 203 194 165 154 149 161 228 216 219 223 221 209 181 173 164 151 179 162 145 176 207 206 201 174 175 180 185 198 212 195 171 167 232 213 185 195 165 138 167 34 44 81 265 275 130 156 258 313 259 183 159 147 156 162 152 154 158 158 158 151 147 152 150
299 299 301 301 307 299 263 249 273 287 303 284 311 337 333 338 338 205 182 342 276 215 153 162 176 175 168 163 157 148 190 216 193 205 213 224 231 193 186 173 129 164 147 136 204 212 162 175 199 195 182 188 207 215 190 164 158 222 192 163 172 158 156 175 145 205 225 249 302 353 147 223 292 266 212 165 153 157 164 159 158 160 157 154 153 154 157 155
297 297 298 298 302 285 247 259 290 281 271 295 317 323 329 339 322 195 171 342 249 185 138 188 204 170 150 161 159 165 226 212 157 185 191 202 213 179 191 190 139 151 156 155 203 235 151 175 200 195 193 206 204 184 160 155 166 217 159 136 154 166 169 175 181 228 259 43 293 293 134 197 263 268 222 167 160 162 167 164 160 162 159 152 147 148 154 152
296 297 296 298 302 280 249 252 266 263 279 304 312 313 326 333 265 179 336 239 230 230 127 132 198 157 122 150 171 192 221 260 200 171 160 186 206 206 202 180 133 147 194 183 192 225 170 178 186 184 204 211 184 155 153 162 190 207 131 106 128 169 159 160 181 210 87 129 251 251 163 182 262 265 176 178 174 170 169 168 165 162 157 147 138 149 157 144
295 296 294 297 300 280 244 248 257 265 295 312 306 308 322 326 144 90 247 223 18 291 112 104 199 145 138 151 181 212 215 266 290 147 138 159 192 212 186 136 126 151 209 210 189 225 257 181 175 184 205 190 161 167 164 167 176 151 116 82 75 180 100 114 153 108 104 249 246 220 177 184 251 248 179 187 188 172 165 162 165 159 150 145 143 155 154 138
295 293 291 293 289 268 233 248 253 270 329 328 315 313 319 74 87 109 199 266 4 321 12 36 165 137 154 165 171 206 213 259 308 147 156 156 158 182 161 139 144 154 195 221 204 224 256 227 189 183 178 158 162 185 172 167 166 132 115 109 121 306 21 58 11 72 174 249 252 196 176 185 226 236 181 202 219 175 167 160 161 158 156 157 147 145 145 137
292 291 288 287 282 261 236 227 231 288 328 334 335 330 348 94 22 193 240 323 5 325 339 356 40 132 174 194 178 189 188 204 264 172 158 161 166 183 181 170 164 162 194 209 181 202 230 240 247 193 175 166 168 180 165 169 169 136 119 135 152 234 48 176 230 187 208 247 251 184 172 181 233 258 200 193 186 178 178 171 164 161 161 158 144 142 145 135
290 291 286 284 285 266 244 240 253 286 319 336 349 352 112 118 219 219 261 322 23 334 320 317 319 266 189 206 202 187 182 186 218 190 148 153 163 184 200 194 166 152 177 170 130 169 220 270 267 210 191 175 173 175 176 184 178 167 156 151 159 165 168 200 216 213 238 245 267 193 184 213 249 276 261 239 215 189 187 186 171 160 155 151 139 138 140 132
289 289 286 285 283 271 253 245 255 282 321 336 345 111 130 157 239 242 211 306 330 314 312 314 303 276 180 188 202 174 174 231 203 163 137 151 162 185 203 205 180 143 114 146 153 172 194 246 235 204 194 178 185 186 165 152 163 175 145 129 159 173 165 189 196 187 221 238 307 344 195 206 203 264 314 297 268 191 170 190 165 147 139 136 128 128 133 130
291 290 292 289 279 274 265 247 252 274 317 345 7 189 184 178 234 295 127 339 323 315 321 316 301 293 164 187 203 176 169 222 208 155 124 162 170 183 188 199 194 162 120 159 192 180 187 229 242 207 205 181 183 180 142 130 161 182 120 129 192 189 153 138 181 178 174 183 310 299 217 244 201 274 324 354 60 66 41 353 8 127 125 123 122 128 130 124
302 301 294 285 280 286 279 253 249 250 232 86 221 220 206 187 201 326 8 345 320 328 330 321 340 48 54 176 206 207 172 152 186 170 78 170 170 180 185 192 189 175 149 158 192 180 180 236 280 184 205 205 177 165 165 164 171 161 150 182 194 147 138 164 199 160 114 143 236 266 269 322 228 273 11 74 80 88 88 1 356 18 103 122 122 126 125 120
312 304 286 275 289 307 285 249 214 187 176 132 235 218 187 277 227 64 10 343 317 322 332 327 355 27 12 22 243 214 170 109 172 171 217 204 183 180 185 192 176 180 182 152 175 200 159 223 277 177 195 222 186 161 180 180 156 148 186 190 126 94 138 172 160 50 75 168 257 318 229 249 180 185 96 105 101 116 135 111 50 20 4 84 117 119 118 116
309 294 277 271 304 338 273 215 169 159 158 179 245 254 98 230 320 15 352 334 318 317 334 328 323 11 32 16 311 235 172 177 192 172 180 240 242 192 175 185 178 180 186 148 149 236 147 183 265 204 189 209 173 152 189 199 171 157 180 170 131 160 214 184 166 183 140 171 271 335 197 238 216 201 167 143 137 138 138 135 130 107 25 340 79 110 114 113
303 302 270 284 341 352 183 170 153 149 156 204 228 257 329 282 312 330 326 320 309 306 328 335 318 350 354 308 303 303 178 176 184 182 165 164 239 215 171 174 188 179 174 155 166 232 138 139 266 232 186 175 152 159 195 208 199 107 149 165 157 176 191 174 173 166 142 159 222 148 170 244 244 197 177 170 160 151 148 153 155 137 126 117 77 108 114 115
288 310 231 356 10 80 149 147 140 143 185 221 230 260 322 323 309 313 324 322 314 303 313 336 355 325 310 295 303 311 186 163 171 186 191 180 209 241 193 174 175 174 167 166 181 198 97 158 254 266 182 161 184 206 189 180 167 134 151 174 175 146 141 163 172 122 129 145 153 148 195 248 251 199 171 170 167 160 155 156 155 139 133 136 130 119 116 117
303 345 222 354 31 131 141 134 151 169 196 254 328 320 315 316 301 313 323 321 320 293 271 304 289 257 278 295 312 333 339 305 180 179 204 191 182 230 218 182 160 158 158 174 197 191 145 168 208 270 190 178 206 200 168 171 172 163 167 185 178 142 114 149 219 244 112 126 152 157 208 252 261 233 165 159 162 161 155 149 143 136 138 140 136 130 125 120
314 281 248 356 79 147 144 120 172 170 247 227 318 307 309 312 300 316 323 326 333 311 274 290 267 249 230 243 273 308 296 302 204 178 173 187 188 211 222 188 162 156 151 172 208 196 154 141 164 239 224 207 220 209 166 172 161 146 170 181 156 139 132 154 203 225 103 84 113 121 176 262 279 303 151 144 144 144 140 136 131 130 135 135 129 126 125 122
299 274 308 359 123 156 152 68 161 208 269 245 304 293 293 297 287 306 309 322 341 304 261 275 260 253 222 211 249 285 269 288 208 199 169 174 213 223 204 179 165 157 153 174 204 194 173 145 153 275 294 268 251 315 104 149 133 124 183 168 144 163 160 154 177 178 136 146 128 96 282 273 296 356 114 125 126 126 126 126 127 130 133 131 128 129 131 129
303 268 308 354 142 161 170 339 168 209 239 259 279 264 274 280 265 273 277 280 289 262 269 269 258 261 232 173 219 268 278 315 259 276 172 157 262 232 189 190 186 164 165 188 180 179 209 181 135 273 329 18 150 109 60 169 169 166 186 172 155 141 116 125 144 110 130 194 157 135 203 264 298 103 117 123 123 119 119 124 131 136 138 137 137 138 136 127
312 237 247 347 135 163 196 15 133 196 215 253 271 261 268 270 249 245 246 257 250 241 259 263 257 266 243 138 140 279 259 192 222 323 2 25 307 265 177 229 203 172 187 198 167 161 190 174 144 177 187 160 177 192 195 196 197 188 163 164 156 130 124 142 133 111 163 216 134 142 191 223 141 132 133 136 132 126 128 130 129 128 124 125 130 133 130 118
315 323 212 62 101 169 285 18 38 222 189 228 273 270 247 243 258 241 235 254 248 237 242 250 262 275 251 132 96 302 282 219 199 322 335 305 286 270 302 288 209 168 190 188 165 145 143 159 159 164 184 190 193 216 208 157 155 186 156 157 160 143 130 119 106 149 180 149 118 204 178 149 155 154 148 148 141 137 142 142 140 136 127 125 131 128 118 109
283 325 15 84 118 214 258 271 270 260 209 223 263 298 259 254 288 263 226 243 250 241 237 234 246 259 237 127 102 255 290 307 17 355 275 265 268 285 311 306 358 21 198 180 169 131 116 177 185 151 193 232 217 240 225 161 166 174 156 165 175 155 133 129 150 188 158 131 187 234 166 152 168 168 159 158 152 148 152 151 147 140 133 134 135 125 113 107
283 1 354 331 276 192 209 237 232 232 249 264 274 293 285 275 283 271 234 247 257 252 229 220 255 274 331 35 115 164 292 326 10 347 302 320 308 318 327 318 343 349 315 167 169 136 127 187 199 142 22 311 316 298 251 151 149 144 135 159 177 165 163 169 183 181 160 157 193 187 170 169 175 173 169 165 157 152 151 148 140 132 129 131 128 123 118 115
306 341 285 306 316 213 232 256 222 227 242 247 249 252 258 271 272 259 243 261 278 280 92 71 315 4 20 24 107 148 262 330 28 318 293 336 320 332 9 338 311 333 24 143 158 108 128 185 191 142 80 350 341 330 346 118 99 61 67 68 69 182 183 178 171 164 162 173 169 162 166 169 164 166 161 143 137 137 134 133 133 131 131 130 130 128 123 122
120 275 263 315 299 251 257 276 243 231 240 235 243 251 238 248 261 264 253 243 268 298 342 76 290 338 24 54 98 170 227 203 193 254 239 8 341 354 86 290 279 328 9 113 108 24 135 206 201 123 81 348 333 356 32 92 106 86 53 32 26 29 161 150 134 131 109 70 122 143 143 109 98 126 121 120 128 130 132 137 135 134 136 133 131 128 123 123
311 260 227 236 275 219 202 236 213 211 239 223 225 248 242 236 256 299 287 246 236 261 285 78 358 354 26 39 30 250 247 222 216 237 227 198 229 227 135 182 218 323 359 41 55 38 131 177 348 89 98 309 314 29 41 52 85 86 45 15 14 29 112 165 164 152 135 123 122 128 136 153 147 128 122 131 139 138 142 143 138 139 140 135 132 128 123 122
320 291 266 261 280 234 183 280 232 201 220 221 228 265 284 271 286 316 298 294 281 197 134 95 69 28 357 319 269 251 242 227 236 245 238 238 259 260 255 209 193 186 39 67 59 65 130 134 139 110 121 244 298 25 45 44 73 86 12 349 331 323 276 244 63 104 142 138 140 162 178 164 148 138 137 145 150 151 150 146 142 141 136 131 130 127 123 121
Height
816 815 814 813 812 811 810 809 808 806 805 804 803 802 801 800 798 797 796 795 794 793 792 791 790 789 787 786 785 782 780 776 772 773 769 757 755 760 759 759 761 761 761 762 762 763 763 764 764 765 766 767 769 769 768 769 769 774 782 789 790 788 782 774 772 769 766 762 756 753 754 757 755 749 743 743 749 752 755 756 753 752 752 756 761 764 766 769
815 814 813 812 811 810 809 808 807 806 804 803 802 801 800 799 798 797 796 795 794 793 792 791 790 788 787 786 784 782 779 775 773 769 759 752 756 758 757 758 759 760 760 760 761 762 764 765 764 765 766 767 768 767 768 767 768 775 782 787 786 781 774 767 765 762 761 761 757 753 754 755 753 751 745 750 760 756 758 763 758 759 761 763 765 768 770 769
814 813 812 811 810 809 808 807 806 805 804 803 801 800 799 798 797 796 795 794 793 792 791 790 789 788 786 785 783 782 778 775 771 762 752 752 754 753 754 756 757 758 758 760 761 761 763 763 764 765 766 768 768 767 769 767 768 772 778 785 780 773 770 764 762 760 758 758 756 755 754 754 750 748 747 752 761 759 760 762 761 764 765 766 768 769 771 770
813 812 811 810 809 808 807 806 805 804 803 802 800 799 798 797 796 795 794 793 793 792 791 790 789 787 786 784 783 780 779 775 763 752 750 751 749 748 750 752 755 756 757 759 761 761 762 762 763 764 767 769 768 767 769 767 768 770 773 778 772 768 769 763 760 758 756 755 755 755 755 755 748 745 748 751 759 764 761 753 752 759 762 765 768 768 769 769
812 810 810 809 807 807 806 805 804 803 802 801 800 798 797 796 795 794 793 792 792 791 790 789 788 787 785 784 782 780 780 771 754 748 750 748 746 745 745 748 752 755 756 759 760 761 761 762 763 764 767 769 769 769 768 764 764 769 769 768 765 766 767 761 758 757 753 753 754 754 755 755 748 748 751 751 756 761 758 751 747 749 754 759 762 765 767 767
810 809 808 807 806 806 804 804 803 802 801 799 799 797 796 796 794 794 793 791 791 790 790 789 787 786 784 783 780 779 777 761 747 748 748 746 745 742 742 745 749 753 756 758 759 760 761 762 764 766 767 769 770 769 767 763 763 770 768 763 763 763 764 760 755 754 752 753 755 753 752 753 752 753 753 754 756 753 750 751 751 751 753 757 759 763 765 767
809 808 807 806 805 804 803 802 801 800 799 798 797 796 795 794 793 793 791 791 790 789 789 788 787 786 784 782 779 778 778 759 744 747 746 745 744 740 741 743 747 751 754 757 758 759 760 762 764 765 767 769 770 768 765 763 763 769 768 762 760 761 761 758 755 753 752 754 752 750 751 754 756 756 756 758 756 750 749 752 754 756 757 759 762 764 765 766
807 807 805 804 804 802 802 801 800 799 798 797 796 795 794 793 792 791 791 790 789 788 788 787 787 786 784 782 779 779 776 757 743 746 746 745 745 742 742 743 746 750 752 755 756 757 759 761 763 763 768 768 766 766 764 765 766 767 767 762 758 758 757 754 754 754 753 752 749 749 752 755 754 754 759 762 758 751 751 754 756 759 762 764 765 765 766 766
806 805 804 803 802 801 800 799 798 797 796 795 794 793 792 791 791 790 790 789 788 788 787 787 786 785 784 782 782 779 763 747 744 746 745 745 746 745 745 746 748 749 751 754 755 757 758 760 760 760 765 765 764 765 763 767 769 763 761 760 757 756 754 752 753 752 752 750 748 750 753 755 752 752 763 763 758 754 752 757 758 761 765 767 767 767 767 767
804 803 803 802 801 800 799 798 797 796 795 794 792 792 791 790 790 788 788 788 787 786 786 787 785 784 785 781 784 775 750 743 746 745 746 746 746 747 747 748 750 750 751 753 755 757 756 757 758 757 761 762 762 763 761 765 764 757 757 758 756 756 753 753 753 751 752 750 747 750 751 755 750 752 767 765 758 756 755 760 762 763 767 767 769 769 768 768
802 801 801 800 799 798 797 797 795 794 794 792 791 790 789 788 788 787 787 786 786 785 785 785 784 785 783 782 785 769 745 743 746 744 746 746 746 748 748 749 750 751 752 752 754 754 754 756 756 758 762 762 761 761 760 759 757 755 756 757 755 755 754 753 753 751 753 750 745 747 748 752 750 753 764 762 760 759 757 763 765 766 769 768 770 771 770 769
800 799 798 798 798 797 796 795 794 793 792 791 790 788 787 787 786 786 785 784 784 784 784 783 784 783 782 783 777 756 742 744 744 744 746 746 747 747 748 749 750 751 752 753 752 752 754 756 757 759 760 759 761 762 758 755 756 755 755 759 756 754 754 751 750 749 751 750 743 746 755 755 754 758 760 758 760 761 760 764 767 769 770 770 772 772 772 771
798 797 796 796 796 795 795 794 793 792 790 789 788 786 786 784 784 784 783 783 783 782 782 782 782 782 783 779 760 745 745 745 744 744 744 745 746 745 747 748 748 750 751 752 751 751 754 756 758 759 757 759 762 759 755 753 755 756 756 759 759 760 757 749 747 748 748 748 741 749 768 765 758 761 759 757 759 762 765 766 768 771 771 772 773 773 774 773
796 795 795 794 793 793 793 792 791 790 789 788 786 785 784 783 783 782 781 782 781 781 781 780 781 780 782 770 749 745 748 745 745 743 741 744 744 744 745 746 747 749 749 750 749 751 754 755 757 758 757 759 759 756 757 758 757 758 759 761 765 770 762 747 746 749 748 748 740 749 770 766 760 764 759 757 758 760 766 768 769 771 772 774 774 775 776 774
794 793 793 792 791 791 791 791 790 788 787 786 784 783 781 781 780 779 780 779 779 780 778 779 779 779 781 766 747 745 745 745 743 737 739 742 743 743 742 744 746 746 748 748 747 750 753 754 757 759 759 757 758 762 765 764 760 761 766 770 771 772 763 749 746 747 747 747 743 750 768 764 759 764 759 757 760 760 766 768 769 772 773 775 775 776 777 777
793 792 791 790 789 789 789 789 788 787 786 784 783 781 779 778 777 777 777 776 778 778 778 779 776 779 780 762 746 744 743 742 739 735 738 740 741 742 741 743 745 745 747 746 746 749 752 754 755 756 757 757 761 765 768 771 769 766 771 773 772 771 767 757 748 745 743 746 747 751 762 762 758 762 759 758 761 762 766 768 769 772 774 776 777 777 778 778
791 790 789 788 787 787 787 787 786 786 784 783 781 778 776 774 773 773 773 774 775 775 777 776 775 779 771 751 743 743 740 738 736 736 736 737 739 740 742 744 744 745 745 744 746 748 751 753 753 754 756 758 761 764 773 779 777 774 773 772 771 770 769 764 752 746 744 747 750 751 756 758 757 760 760 759 761 763 767 769 770 772 775 777 778 779 779 779
789 788 787 786 786 786 785 785 785 784 783 781 779 776 773 770 769 769 770 772 773 775 777 774 777 776 756 743 744 741 738 738 736 736 735 735 737 739 742 744 744 745 745 745 746 748 752 752 753 757 758 759 760 763 773 775 772 775 773 770 771 769 768 767 756 747 747 748 751 755 757 758 759 761 760 758 760 763 765 767 769 772 775 777 778 780 780 780
788 787 786 785 784 784 783 784 783 783 782 779 777 774 768 765 766 766 768 770 771 772 770 768 771 762 741 738 743 739 737 738 735 733 733 733 735 738 742 743 744 746 748 749 749 748 750 753 756 758 758 757 758 760 765 764 763 767 767 766 768 768 767 765 755 746 746 750 753 756 757 757 761 762 761 759 759 763 765 766 771 775 777 778 779 780 780 781
787 785 784 783 782 782 781 782 782 782 781 778 777 773 768 768 767 766 768 768 765 761 757 757 759 751 739 737 739 738 737 735 734 732 731 731 733 737 741 742 744 748 750 751 750 747 749 757 758 753 752 753 754 757 758 757 757 761 764 766 766 768 767 761 754 747 745 751 753 752 755 757 760 761 761 759 760 766 769 770 774 776 778 778 778 780 780 781
785 784 783 782 781 780 780 780 780 780 780 778 777 776 775 774 770 768 767 764 758 755 753 752 753 750 742 736 737 740 740 737 734 731 731 731 731 735 739 741 746 750 751 749 748 746 748 756 754 748 749 751 752 754 755 756 757 760 764 766 767 770 767 759 754 748 746 752 753 752 755 757 759 760 759 758 762 768 768 770 772 774 776 776 777 779 780 780
784 782 781 780 779 779 778 779 779 778 779 777 777 778 776 773 770 769 768 764 755 750 750 749 750 748 740 736 739 743 746 743 736 729 728 730 730 733 735 739 746 749 748 747 748 750 753 752 748 746 747 748 752 753 753 756 758 762 764 767 770 769 766 760 754 748 747 752 753 752 754 757 758 757 757 757 759 763 762 761 765 768 773 774 775 778 778 780
782 780 780 779 777 777 777 777 777 777 777 776 776 775 772 769 768 768 769 767 754 742 743 745 745 744 738 736 738 742 746 745 740 731 726 729 729 729 732 737 744 747 746 746 748 753 756 751 745 745 745 748 754 755 754 756 759 762 765 769 771 767 767 765 757 751 749 750 752 753 755 759 759 758 759 757 754 758 760 760 763 764 766 769 772 775 777 779
780 779 779 777 776 776 775 775 775 775 775 774 773 770 768 768 768 768 768 767 755 739 733 733 735 736 730 729 733 737 740 738 736 730 725 727 728 728 730 734 741 745 744 744 746 750 752 745 741 743 745 747 753 756 756 758 763 764 764 767 767 765 766 765 759 754 750 752 752 756 762 763 762 763 764 760 757 761 762 767 774 773 770 770 771 774 777 778
778 778 776 775 775 773 774 774 772 773 773 771 769 767 768 768 766 768 768 766 755 737 728 726 728 726 720 724 730 732 736 734 729 726 723 724 725 726 728 730 735 742 743 744 747 749 748 742 739 743 746 747 751 755 756 758 764 766 762 761 760 762 765 762 760 758 762 765 755 757 772 771 765 767 766 762 763 765 764 768 776 778 776 774 773 775 778 779
777 776 774 774 773 772 774 773 770 771 770 768 767 767 768 767 765 766 767 768 756 734 724 724 724 718 715 723 726 729 736 731 721 721 722 722 721 722 727 728 729 737 741 742 745 746 743 739 739 743 746 748 751 753 752 754 763 767 758 754 757 761 763 762 760 763 771 773 759 757 772 773 768 771 767 762 765 768 767 769 772 773 773 772 773 776 778 780
775 774 773 773 772 772 772 770 769 770 769 766 764 766 767 765 765 763 764 768 751 726 722 724 720 714 713 717 719 726 732 721 715 718 718 720 720 718 725 728 728 733 733 738 746 742 736 739 742 743 745 749 752 751 749 749 760 764 751 749 757 761 763 762 762 767 769 769 763 758 765 771 770 771 767 762 766 770 769 770 771 770 769 770 773 777 779 779
773 772 772 771 770 770 769 769 769 767 767 765 763 765 764 763 765 763 764 761 734 714 716 718 715 710 711 714 715 718 719 712 714 717 713 718 720 718 725 728 728 732 728 735 747 739 732 739 743 744 747 748 747 745 745 747 755 755 744 747 755 756 760 760 762 767 767 771 772 763 765 773 774 772 767 764 768 771 769 768 770 769 769 771 775 779 780 780
771 770 770 769 768 768 767 768 768 765 765 764 763 763 761 763 763 761 765 751 718 707 710 709 711 711 713 717 717 715 713 711 712 712 712 717 718 718 724 725 726 731 728 731 741 737 731 733 735 741 746 744 741 739 740 745 750 746 741 747 751 752 756 758 762 766 770 777 776 766 765 771 775 774 771 770 770 769 768 767 767 768 770 773 778 782 783 782
769 768 768 768 766 766 766 766 765 764 765 764 762 761 760 763 760 763 770 746 714 708 707 707 711 712 716 721 722 718 715 712 708 708 714 716 717 719 720 721 724 729 731 732 736 734 729 727 728 733 736 735 735 737 738 741 744 742 744 750 753 755 756 759 763 766 776 782 771 762 762 766 773 774 769 769 767 763 765 768 769 771 773 775 778 781 783 783
767 767 767 766 766 765 765 764 764 764 765 763 761 760 759 760 760 768 765 733 714 714 709 710 712 712 717 720 720 721 717 714 709 708 714 715 718 722 721 723 727 732 738 737 737 735 731 731 728 724 725 728 732 736 738 738 739 742 746 752 760 764 763 768 770 772 783 782 765 758 759 762 772 771 765 764 760 758 760 763 767 773 775 775 775 779 782 783
766 765 765 764 764 764 763 763 763 763 764 762 762 761 759 760 764 766 750 724 720 723 714 713 714 713 717 716 716 718 716 715 711 708 713 716 720 722 721 724 728 736 744 742 740 740 735 733 729 723 722 724 731 740 743 741 742 746 749 756 769 776 777 781 780 780 784 774 761 760 758 762 770 768 763 760 757 757 756 754 757 763 769 770 772 777 781 782
764 763 763 763 762 762 761 762 762 764 764 762 763 762 758 762 762 751 740 730 727 723 715 714 714 713 715 715 715 715 714 714 711 709 710 713 719 722 720 720 721 729 738 740 742 746 743 736 730 727 724 720 726 739 746 745 746 749 751 758 770 779 785 790 787 785 781 766 760 763 759 764 770 767 764 761 756 753 751 751 751 752 759 765 768 774 779 781
762 762 762 761 760 759 759 761 762 763 765 763 764 763 759 762 756 738 735 735 728 722 717 716 715 711 711 712 711 711 714 714 710 709 711 713 720 723 721 720 718 720 727 736 741 743 748 745 731 727 724 717 720 729 733 738 743 747 747 752 762 766 772 781 781 778 774 764 763 766 764 767 770 767 766 763 758 755 755 756 756 756 761 764 769 775 778 781
761 760 760 759 758 758 758 760 761 763 765 764 763 762 757 756 749 738 737 736 732 727 721 717 713 709 709 709 707 705 709 711 709 709 711 714 718 720 720 719 718 718 723 735 738 735 742 740 722 718 719 715 719 723 722 731 743 746 744 750 757 752 752 765 770 767 764 762 765 770 771 771 769 767 766 762 760 763 765 766 765 765 766 767 772 777 779 782
760 759 758 757 756 756 757 758 760 762 763 764 763 760 753 746 742 741 740 737 736 734 728 721 713 710 712 710 706 705 704 706 710 712 712 713 714 715 716 714 714 715 716 726 732 732 738 735 719 716 718 714 716 719 718 726 739 745 747 748 745 738 741 757 768 770 765 761 769 779 779 775 771 768 766 765 765 768 770 771 772 773 772 771 774 778 780 782
759 758 756 755 754 755 756 757 759 761 762 765 763 754 747 742 738 739 739 739 738 735 734 731 719 717 722 716 708 706 706 706 709 713 713 712 711 711 712 710 710 711 710 714 723 725 730 731 719 716 720 715 711 715 716 717 725 739 746 740 735 738 743 748 760 772 770 764 777 788 782 776 774 772 769 768 771 772 771 771 775 779 780 778 776 778 781 783
758 757 755 754 754 753 754 757 759 760 762 764 761 751 745 742 737 736 737 738 738 735 738 738 726 721 726 722 713 707 708 710 712 712 712 712 710 706 708 709 707 707 706 709 717 720 723 729 722 713 716 714 709 717 724 720 717 725 730 728 732 747 753 749 756 767 769 774 786 787 783 779 774 772 771 770 771 774 774 774 775 778 784 787 782 780 783 786
758 757 755 754 753 752 753 757 759 761 762 762 759 752 746 743 738 734 735 736 737 737 738 737 732 728 726 723 719 713 708 710 712 711 710 712 709 703 702 705 706 707 705 707 715 716 718 728 726 713 709 711 713 721 730 728 722 720 722 725 728 738 744 747 753 756 760 778 789 782 784 782 768 762 766 766 767 770 772 776 776 775 780 788 789 786 785 787
758 758 756 753 752 751 752 757 759 762 762 758 755 751 747 744 738 734 734 735 735 736 737 737 736 734 728 723 721 716 710 708 709 709 708 708 707 704 700 700 703 706 705 707 713 714 718 727 728 718 711 714 718 719 721 725 727 725 728 732 731 731 735 740 748 749 751 770 783 784 787 777 758 753 758 761 765 765 766 771 775 777 779 784 789 789 788 787
758 758 756 753 752 752 753 758 761 761 760 756 753 750 747 743 739 736 734 734 735 734 734 737 738 735 731 727 722 717 713 709 707 706 706 706 706 704 699 696 699 703 707 711 713 714 718 724 727 723 719 719 715 709 708 713 718 721 725 730 731 730 735 744 752 751 749 759 771 778 777 766 755 754 754 758 764 764 765 768 773 779 782 782 784 786 789 790
759 757 754 753 753 752 754 758 759 758 758 756 752 749 746 743 741 740 736 735 736 735 734 737 735 731 731 728 722 719 717 712 708 705 703 703 702 700 696 693 694 698 704 712 713 710 712 719 725 723 719 717 709 702 703 706 709 713 716 721 728 728 729 740 748 747 749 758 766 769 764 758 759 758 754 758 764 765 768 771 774 780 783 784 784 785 790 793
760 757 753 752 753 753 755 759 758 757 757 753 749 747 746 745 744 742 740 739 741 740 739 738 732 726 725 723 721 719 716 711 707 703 702 701 698 695 693 692 694 696 701 708 711 709 710 717 724 722 716 713 707 702 703 704 707 713 714 717 723 723 721 727 733 736 745 755 761 764 763 760 761 760 757 761 765 767 771 774 777 781 784 787 789 789 792 792
760 758 755 753 753 754 756 758 758 759 757 753 750 749 746 744 744 743 742 743 743 741 739 735 728 722 719 720 721 719 715 712 707 702 702 701 695 691 690 690 693 696 698 702 704 706 712 719 724 728 726 722 719 716 715 712 709 710 713 714 714 716 720 725 728 732 742 751 749 750 758 764 763 761 762 765 768 771 775 777 779 781 783 786 788 790 791 790
759 758 756 755 754 755 756 756 756 758 757 754 752 750 747 745 741 739 740 742 740 738 736 730 723 719 716 718 721 720 715 713 710 704 702 701 696 691 689 690 692 693 693 694 695 699 711 718 721 730 735 734 731 727 723 719 713 709 710 711 711 714 718 724 729 732 742 753 750 744 754 766 766 764 765 767 769 774 777 779 781 783 784 786 788 789 789 789
760 758 756 756 756 757 756 755 755 756 755 755 753 749 747 746 739 734 735 736 733 730 730 725 719 717 715 714 720 721 714 710 709 707 704 703 698 692 690 691 691 690 689 690 691 696 707 714 715 720 724 723 719 715 712 712 712 713 713 712 713 714 714 721 730 732 737 750 754 750 755 764 765 763 764 766 769 774 778 779 781 783 784 788 790 791 790 789
761 758 756 756 758 759 758 756 756 756 754 753 752 748 746 745 741 736 734 731 727 724 723 720 718 716 713 712 718 723 718 711 708 707 706 704 701 695 692 691 691 689 687 688 690 695 705 713 713 713 716 716 712 708 707 705 706 710 711 711 713 714 716 721 726 729 735 744 750 754 756 759 761 760 760 763 767 772 776 778 779 782 784 788 790 791 791 792
760 759 758 757 756 757 757 755 753 755 754 752 752 749 746 744 743 740 735 727 723 720 718 717 716 715 714 712 716 722 719 713 710 708 707 705 704 700 694 691 692 690 687 687 689 692 700 710 713 713 716 718 716 712 706 703 705 709 710 712 714 714 715 717 721 726 728 727 733 747 755 755 756 757 757 758 762 767 772 775 777 781 784 787 789 791 793 796
761 760 759 758 755 753 752 750 749 752 753 752 751 748 745 744 742 738 733 727 722 718 716 716 716 717 717 713 715 719 719 715 713 711 709 707 706 704 700 696 693 690 687 688 691 692 697 706 710 710 714 717 718 717 710 703 708 719 726 726 723 720 716 714 720 727 725 722 729 742 752 753 753 755 758 761 764 768 772 776 778 781 783 786 790 793 796 799
762 761 759 759 757 754 752 750 749 750 750 749 749 745 741 741 737 733 730 727 724 718 715 717 719 720 720 717 716 717 715 713 713 712 709 708 706 705 706 706 700 694 691 691 694 694 698 708 709 705 711 719 719 719 716 709 711 723 734 735 730 727 724 719 723 730 731 735 742 747 753 758 757 757 762 766 768 771 775 778 780 782 783 787 792 796 798 802
762 760 759 759 755 751 751 749 747 749 749 747 746 742 737 735 734 733 730 724 721 720 717 720 723 721 719 719 718 716 712 711 712 711 707 707 705 703 704 706 704 699 695 695 697 695 698 710 711 706 713 723 721 722 723 719 717 721 730 739 738 735 733 729 729 731 731 739 751 756 756 758 758 759 764 769 771 774 777 780 782 784 786 789 794 798 801 804
760 758 756 756 752 748 748 747 745 745 745 743 741 738 736 734 733 734 731 723 719 720 720 722 723 721 721 721 716 712 710 710 710 709 707 705 704 702 702 704 704 701 699 699 702 702 701 708 711 711 718 724 724 725 724 721 721 725 735 747 747 741 740 737 734 733 731 736 747 751 749 751 755 758 763 770 772 774 777 780 783 786 789 792 795 799 803 806